FENGYUN 1C DEB, 37415

Orbit data source: Space-Track

FENGYUN 1C DEB, 37415 is space debris in SSO originally from a launch on Mon, 10 May 1999 UTC launched from the Taiyaun Space Center, China (TSC). Fengyun 1C debris stems from the Chinese weather satellite Fengyun-1C, which was intentionally destroyed by a Chinese anti-satellite missile in 2007. This event dramatically increased the amount of space debris, with thousands of trackable fragments posing hazards to satellites and human spaceflight. The Fengyun 1C debris cloud has become a focal point in discussions about space sustainability and the need for international regulations to prevent the creation of new debris.

Loading next visibility...
Identifier
37415, 1999-025EGH
Orbit
SSO
Country
Flag of CNCN / PRC
Related business
Manufacturer
Unknown
Mission
Spacecraft
Bus & Motor
Unknown
Mass
Unknown
Launch date (UTC)
1999-05-10 (27 years ago)
Launch vehicle
Unknown
Launch site
Taiyaun Space Center, China (TSC)
Object type
Payload
Rocket body
Debris
Shape & HBR
Unknown shape, 0.1 m
Radar Cross Section
Small (<0.1 m²)

Expand to show TLE details & history
Last TLE update: 2 days ago

TLE from 2 days ago
0 FENGYUN 1C DEB
1 37415U 99025EGH 26234.53757364  .00000261  00000-0  35623-3 0  9993
2 37415  98.9851 323.8424 0283385 256.9124 100.0245 13.52230434657384
Epoch: 2026-08-22T12:54Z
TLE epoch observation values (Epoch: 2026-08-22T12:54:06.362Z)
Latitude
-0.0001°
Longitude
159.46935°
Altitude
1,109.346 km
Speed
7.277 km/s
True Right ascension
21h 35m 22s
True Declination
0° 00' 00"
Sunlit
Object was in full shadow at epoch
Visualization orbit readout
Latitude
Unknown
Longitude
Unknown
Altitude
Unknown
Speed
Unknown
Apparent Right ascension
Unknown
Apparent Declination
Unknown
Sunlit
N/A
Visualization observer readout
Local Sidereal Time
14:54:16
Azimuth
Unknown
Elevation
Unknown
Doppler factor
Unknown
Orbital elements
Apogee altitude
1,272.146 km
Perigee altitude
850.5 km
Semi-major axis
7,439.46 km
Eccentricity
0.02834
Inclination
98.9851°
RAAN
323.8424°
Arg. of periapsis
256.9124°
True anomaly
103.20105°
Mean anomaly
100.0245°
Eccentric anomaly
101.61493°
Mean motion
3.38245 °/min
Orbital period
106.43 mins
BSTAR
0.00035623
Loading maneuver chart data...
Computing Atmospheric mass density...

Documentation

Showing up to 5 results
|